Location: Prescott
(34.5400°N, 112.4680°W)
Time: 22:37:19
(UTC-07:00)

Hubble Space Telescope - Visible Passes

Search period start: 22 November 2017 00:00
Search period end: 02 December 2017 00:00
Orbit: 537 x 541 km, 28.5° (Epoch: 22 November)

Date Brightness Start Highest point End Pass type
(mag) Time Alt. Az. Time Alt. Az. Time Alt. Az.
22 Nov 2.2 05:01:41 32° SSE 05:01:41 32° SSE 05:04:43 10° ESE visible
22 Nov 2.4 06:38:17 10° WSW 06:41:46 26° SSW 06:45:15 10° SE visible
23 Nov 2.6 04:52:07 27° SE 04:52:07 27° SE 04:54:27 10° ESE visible
23 Nov 2.5 06:28:10 10° WSW 06:31:29 23° SSW 06:34:48 10° SE visible
24 Nov 3.1 04:42:32 20° SE 04:42:32 20° SE 04:44:10 10° ESE visible
24 Nov 2.7 06:18:06 10° WSW 06:21:11 20° SSW 06:24:16 10° SSE visible
25 Nov 3.5 04:32:57 15° SE 04:32:57 15° SE 04:33:51 10° ESE visible
25 Nov 2.8 06:08:19 11° WSW 06:10:52 17° SSW 06:13:38 10° SSE visible
26 Nov 3.9 04:23:23 11° SE 04:23:23 11° SE 04:23:30 10° SE visible
26 Nov 3.0 05:58:45 11° SW 06:00:33 14° SSW 06:02:50 10° SSE visible
27 Nov 3.1 05:49:12 11° SW 05:50:14 12° SSW 05:51:43 10° S visible
